Location: St. Louis
(38.6270°N, 90.1994°W)
Time: 08:17:07
(UTC-06:00)

A-11 Canister half - Pass Details

Date: 13 December 2021
Orbit: 1524 x 1684 km, 47.3° (Epoch: 17 January)

Event Time Altitude Azimuth Distance (km) Brightness Sun altitude
Rises 03:58:13 0° 297° (WNW) 4,941 - -36.6°
Reaches altitude 10° 04:01:26 10° 300° (WNW) 3,947 - -36.0°
Exits shadow 04:09:54 63° 329° (NNW) 1,820 9.1 -34.3°
Maximum altitude 04:11:37 75° 26° (NNE) 1,712 9.1 -34.0°
Drops below altitude 10° 04:21:30 10° 111° (ESE) 3,844 11.9 -32.1°
Sets 04:24:35 0° 113° (ESE) 4,807 12.6 -31.5°
